Preview of NWS' New Version of Forecast
This preview is not operational and should not be used for support decisions.

Regional Weather Roundup (RWR)

Issued by National Weather Service (NWS)

                            
000
ASUS44 KJAN 182010
RWRMS 

MISSISSIPPI HOURLY WEATHER ROUNDUP
NATIONAL WEATHER SERVICE JACKSON MS
200 PM CST MON FEB 18 2019

NOTE: "FAIR: INDICATES FEW OR NO CLOUDS BELOW 12,000 FEET WITH NO
SIGNIFICANT WEATHER AND/OR OBSTRUCTIONS TO VISIBILITY.

MSZ001>002-007>008-010>013-018>021-025>028-034>036-182100-
NORTHWEST MISSISSIPPI
  
CITY           SKY/WX    TMP DP  RH WIND       PRES   REMARKS
BATESVILLE     FAIR      43  28  56 NE8G15    30.34R                  
CLARKSDALE     SUNNY     43  30  61 N16G22    30.37R                  
CLEVELAND      FAIR      40  30  69 N13       30.35R WCI  32          
GREENWOOD      FAIR      44  28  53 NE6       30.33S                  
GREENVILLE     FAIR      41  30  65 NE13      30.35R                  
OLIVE BRANCH   PTSUNNY   39  25  56 NE14G21   30.35F WCI  31          
OXFORD         FAIR      41  27  56 VRB7G16   30.34S                  
TUNICA           N/A     39  28  65 N14       30.38S WCI  31          
WINONA         FAIR      42  31  64 N8        30.32R                  
$$

MSZ003>006-009-014>017-022>024-029>033-037>039-182100-
NORTHEAST MISSISSIPPI
  
CITY           SKY/WX    TMP DP  RH WIND       PRES   REMARKS
ABERDEEN       FAIR      43  36  75 CALM      30.33R                  
COLUMBUS AFB   FAIR      48  34  58 N7        30.29S                  
CORINTH        FAIR      43  27  52 N12       30.34S                  
GOLDN TRIANGLE FAIR      47  35  63 N7        30.30F                  
STARKVILLE     FAIR      45  34  65 N8G16     30.31F                  
TUPELO         FAIR      42  29  59 NE12      30.32S                  
$$

MSZ040-058-182100-
CENTRAL MISSISSIPPI
  
CITY           SKY/WX    TMP DP  RH WIND       PRES   REMARKS
JACKSON INTL   PTSUNNY   52  35  52 NE15      30.24F                  
JACKSON HAWKNS FAIR      56  37  49 NE8       30.24F                  
MADISON        FAIR      52  37  58 N9        30.24F                  
MERIDIAN KEY   FAIR      55  31  39 NE12      30.24S                  
MERIDIAN NAS   FAIR      54  35  48 N10       30.25F                  
RAYMOND          N/A     54  37  54 VRB6G16   30.24F                  
VICKSBURG VKS  CLEAR     48  36  61 N17       30.25F                  
$$

MSZ059>079-182100-
SOUTH MISSISSIPPI
  
CITY           SKY/WX    TMP DP  RH WIND       PRES   REMARKS
HATTIESBURG    CLOUDY    56  34  43 NE8       30.20F                  
LAUREL         CLOUDY    54  32  43 NE7       30.22F                  
MCCOMB         CLOUDY    56  29  35 NE6       30.19F                  
NATCHEZ        FAIR      52  37  56 N12       30.22F                  
PINE BELT      CLOUDY    55  34  45 NE13      30.21F                  
$$

MSZ080>082-182100-
COASTAL MISSISSIPPI
  
CITY           SKY/WX    TMP DP  RH WIND       PRES   REMARKS
BAY ST LOUIS   CLOUDY    55  41  58 NE12      30.17F                  
BILOXI         CLOUDY    53  45  75 NE8       30.14F                  
PASCAGOULA     CLOUDY    54  46  74 N8        30.15F                  
GULFPORT       LGT RAIN  54  44  69 N6        30.14F                  
$$

LAZ007>009-015>016-023>026-182100-
NORTHEAST LOUISIANA
  
CITY           SKY/WX    TMP DP  RH WIND       PRES   REMARKS
BASTROP        FAIR      44  26  48 NE8G17    30.34R                  
TALLULAH/VBURG FAIR      47  33  58 N16       30.28F                  
VIDALIA        FAIR      52  36  54 N10G22    30.22S                  
$$